Time,TemperatureF,DewpointF,PressureIn,WindDirection,WindDirectionDegrees,WindSpeedMPH,WindSpeedGustMPH,Humidity,HourlyPrecipIn,Conditions,Clouds,dailyrainin,SoftwareType,DateUTC
2009-06-24 00:09:00,59.6,53.1,29.70,ENE,71,0.0,3.0,79,0.00,,,0.00,Wunderground v.1.13,2009-06-24 07:09:00,
2009-06-24 00:19:00,59.3,53.5,29.70,ENE,71,0.0,3.0,81,0.00,,,0.00,Wunderground v.1.13,2009-06-24 07:19:00,
2009-06-24 00:29:00,59.0,53.2,29.70,ENE,71,0.0,3.0,81,0.00,,,0.00,Wunderground v.1.13,2009-06-24 07:29:00,
2009-06-24 00:39:00,58.7,53.5,29.71,SE,127,0.0,3.0,83,0.00,,,0.00,Wunderground v.1.13,2009-06-24 07:39:00,
2009-06-24 00:49:00,58.4,53.3,29.71,SW,220,0.0,3.0,83,0.00,,,0.00,Wunderground v.1.13,2009-06-24 07:49:00,
2009-06-24 00:59:00,58.1,53.0,29.71,SW,220,0.0,3.0,83,0.00,,,0.00,Wunderground v.1.13,2009-06-24 07:59:00,
2009-06-24 01:09:00,57.8,53.0,29.71,SW,220,0.0,3.0,84,0.00,,,0.00,Wunderground v.1.13,2009-06-24 08:09:00,
2009-06-24 01:19:00,57.3,52.8,29.71,SW,220,0.0,3.0,85,0.00,,,0.00,Wunderground v.1.13,2009-06-24 08:19:00,
2009-06-24 01:29:00,57.0,52.9,29.71,SW,220,0.0,3.0,86,0.00,,,0.00,Wunderground v.1.13,2009-06-24 08:29:00,
2009-06-24 01:40:00,56.7,52.6,29.71,SW,220,0.0,3.0,86,0.00,,,0.00,Wunderground v.1.13,2009-06-24 08:40:00,
2009-06-24 01:49:00,56.3,52.2,29.72,SW,220,0.0,3.0,86,0.00,,,0.00,Wunderground v.1.13,2009-06-24 08:49:00,
2009-06-24 01:59:00,56.2,52.4,29.72,SW,220,0.0,3.0,87,0.00,,,0.00,Wunderground v.1.13,2009-06-24 08:59:00,
2009-06-24 02:09:00,56.2,52.4,29.71,SW,220,0.0,3.0,87,0.00,,,0.00,Wunderground v.1.13,2009-06-24 09:09:00,
2009-06-24 02:20:00,55.9,52.1,29.72,SW,220,0.0,3.0,87,0.00,,,0.00,Wunderground v.1.13,2009-06-24 09:20:00,
2009-06-24 02:29:00,55.6,51.8,29.72,SW,220,0.0,3.0,87,0.00,,,0.00,Wunderground v.1.13,2009-06-24 09:29:00,
2009-06-24 02:39:00,55.1,51.9,29.72,SW,220,0.0,3.0,89,0.00,,,0.00,Wunderground v.1.13,2009-06-24 09:39:00,
2009-06-24 02:49:00,55.0,51.8,29.72,SW,220,0.0,3.0,89,0.00,,,0.00,Wunderground v.1.13,2009-06-24 09:49:00,
2009-06-24 02:59:00,55.0,51.8,29.72,SW,220,0.0,3.0,89,0.00,,,0.00,Wunderground v.1.13,2009-06-24 09:59:00,
2009-06-24 03:09:00,54.7,51.8,29.72,SW,220,0.0,3.0,90,0.00,,,0.00,Wunderground v.1.13,2009-06-24 10:09:00,
2009-06-24 03:19:00,54.5,51.6,29.72,SW,220,0.0,3.0,90,0.00,,,0.00,Wunderground v.1.13,2009-06-24 10:19:00,
2009-06-24 03:29:00,54.4,51.5,29.72,SW,220,0.0,3.0,90,0.00,,,0.00,Wunderground v.1.13,2009-06-24 10:29:00,
2009-06-24 03:39:00,54.1,51.2,29.72,SW,220,0.0,3.0,90,0.00,,,0.00,Wunderground v.1.13,2009-06-24 10:39:00,
2009-06-24 03:50:00,54.1,51.2,29.72,SW,220,0.0,3.0,90,0.00,,,0.00,Wunderground v.1.13,2009-06-24 10:50:00,
2009-06-24 03:59:00,53.9,51.3,29.72,SW,220,0.0,3.0,91,0.00,,,0.00,Wunderground v.1.13,2009-06-24 10:59:00,
2009-06-24 04:09:00,53.8,51.2,29.72,SW,220,0.0,3.0,91,0.00,,,0.00,Wunderground v.1.13,2009-06-24 11:09:00,
2009-06-24 04:19:00,53.8,51.2,29.72,SW,220,0.0,3.0,91,0.00,,,0.00,Wunderground v.1.13,2009-06-24 11:19:00,
2009-06-24 04:29:00,53.6,51.0,29.72,SW,220,0.0,3.0,91,0.00,,,0.00,Wunderground v.1.13,2009-06-24 11:29:00,
2009-06-24 04:39:00,53.5,50.9,29.72,SW,220,0.0,3.0,91,0.00,,,0.00,Wunderground v.1.13,2009-06-24 11:39:00,
2009-06-24 04:49:00,53.3,51.0,29.73,SW,220,0.0,3.0,92,0.00,,,0.00,Wunderground v.1.13,2009-06-24 11:49:00,
2009-06-24 04:59:00,53.3,51.0,29.73,SW,220,0.0,3.0,92,0.00,,,0.00,Wunderground v.1.13,2009-06-24 11:59:00,
2009-06-24 05:09:00,53.3,51.0,29.73,SW,220,0.0,3.0,92,0.00,,,0.00,Wunderground v.1.13,2009-06-24 12:09:00,
2009-06-24 05:19:00,53.3,51.3,29.74,SW,220,0.0,3.0,93,0.00,,,0.00,Wunderground v.1.13,2009-06-24 12:19:00,
2009-06-24 05:29:00,53.5,51.5,29.74,SW,220,0.0,3.0,93,0.00,,,0.00,Wunderground v.1.13,2009-06-24 12:29:00,
2009-06-24 05:39:00,53.6,51.6,29.74,SSE,162,0.0,3.0,93,0.00,,,0.00,Wunderground v.1.13,2009-06-24 12:39:00,
2009-06-24 05:50:00,53.6,51.6,29.74,WNW,287,0.0,3.0,93,0.00,,,0.00,Wunderground v.1.13,2009-06-24 12:50:00,
2009-06-24 06:00:00,53.8,51.8,29.74,WNW,287,0.0,3.0,93,0.00,,,0.00,Wunderground v.1.13,2009-06-24 13:00:00,
2009-06-24 06:09:00,54.2,52.2,29.75,WNW,287,0.0,3.0,93,0.00,,,0.00,Wunderground v.1.13,2009-06-24 13:09:00,
2009-06-24 06:19:00,54.5,52.5,29.76,WNW,287,0.0,3.0,93,0.00,,,0.00,Wunderground v.1.13,2009-06-24 13:19:00,
2009-06-24 06:29:00,54.5,52.5,29.76,WNW,287,0.0,3.0,93,0.00,,,0.00,Wunderground v.1.13,2009-06-24 13:29:00,
2009-06-24 06:40:00,54.5,52.5,29.76,WNW,287,0.0,3.0,93,0.00,,,0.00,Wunderground v.1.13,2009-06-24 13:40:00,
2009-06-24 06:50:00,54.8,52.5,29.76,WNW,287,0.0,3.0,92,0.00,,,0.00,Wunderground v.1.13,2009-06-24 13:50:00,
2009-06-24 06:59:00,56.2,53.9,29.76,WNW,287,0.0,3.0,92,0.00,,,0.00,Wunderground v.1.13,2009-06-24 13:59:00,
2009-06-24 07:09:00,56.5,54.5,29.76,WSW,237,0.0,3.0,93,0.00,,,0.00,Wunderground v.1.13,2009-06-24 14:09:00,
2009-06-24 07:19:00,56.7,54.7,29.77,SE,140,0.0,3.0,93,0.00,,,0.00,Wunderground v.1.13,2009-06-24 14:19:00,
2009-06-24 07:29:00,57.2,55.2,29.77,SE,140,0.0,3.0,93,0.00,,,0.00,Wunderground v.1.13,2009-06-24 14:29:00,
2009-06-24 07:39:00,57.5,55.5,29.77,NE,40,0.0,3.0,93,0.00,,,0.00,Wunderground v.1.13,2009-06-24 14:39:00,
2009-06-24 07:49:00,57.8,55.8,29.77,East,82,0.0,3.0,93,0.00,,,0.00,Wunderground v.1.13,2009-06-24 14:49:00,
2009-06-24 08:00:00,58.1,55.2,29.77,East,82,0.0,3.0,90,0.00,,,0.00,Wunderground v.1.13,2009-06-24 15:00:00,
2009-06-24 08:09:00,59.2,56.3,29.78,East,85,0.0,3.0,90,0.00,,,0.00,Wunderground v.1.13,2009-06-24 15:09:00,
2009-06-24 08:19:00,60.4,57.5,29.79,ESE,102,1.0,1.0,90,0.00,,,0.00,Wunderground v.1.13,2009-06-24 15:19:00,
2009-06-24 08:29:00,61.2,55.7,29.79,ESE,102,0.0,3.0,82,0.00,,,0.00,Wunderground v.1.13,2009-06-24 15:29:00,
2009-06-24 08:39:00,62.1,56.5,29.79,East,82,0.0,3.0,82,0.00,,,0.00,Wunderground v.1.13,2009-06-24 15:39:00,
2009-06-24 08:59:00,63.5,57.9,29.79,ENE,75,0.0,3.0,82,0.00,,,0.00,Wunderground v.1.13,2009-06-24 15:59:00,
2009-06-24 09:09:00,63.9,58.3,29.79,ENE,75,0.0,3.0,82,0.00,,,0.00,Wunderground v.1.13,2009-06-24 16:09:00,
2009-06-24 09:19:00,65.0,56.1,29.79,NNW,336,1.0,1.0,73,0.00,,,0.00,Wunderground v.1.13,2009-06-24 16:19:00,
2009-06-24 09:29:00,66.0,55.9,29.79,ENE,72,1.0,1.0,70,0.00,,,0.00,Wunderground v.1.13,2009-06-24 16:29:00,
2009-06-24 09:39:00,67.4,56.1,29.80,NNE,23,1.0,1.0,67,0.00,,,0.00,Wunderground v.1.13,2009-06-24 16:39:00,
2009-06-24 09:49:00,68.8,56.6,29.80,North,6,1.0,1.0,65,0.00,,,0.00,Wunderground v.1.13,2009-06-24 16:49:00,
2009-06-24 09:59:00,70.1,56.9,29.80,NW,315,1.0,1.0,63,0.00,,,0.00,Wunderground v.1.13,2009-06-24 16:59:00,
2009-06-24 10:09:00,72.0,57.4,29.80,North,0,0.0,3.0,60,0.00,,,0.00,Wunderground v.1.13,2009-06-24 17:09:00,
2009-06-24 10:19:00,73.2,57.5,29.80,ESE,102,0.0,3.0,58,0.00,,,0.00,Wunderground v.1.13,2009-06-24 17:19:00,
2009-06-24 10:30:00,73.7,57.0,29.80,North,0,1.0,1.0,56,0.00,,,0.00,Wunderground v.1.13,2009-06-24 17:30:00,
2009-06-24 10:40:00,74.0,57.3,29.80,NNW,344,0.0,3.0,56,0.00,,,0.00,Wunderground v.1.13,2009-06-24 17:40:00,
2009-06-24 10:49:00,75.4,57.6,29.80,NE,41,1.0,3.0,54,0.00,,,0.00,Wunderground v.1.13,2009-06-24 17:49:00,
2009-06-24 10:59:00,76.5,58.1,29.80,North,0,1.0,3.0,53,0.00,,,0.00,Wunderground v.1.13,2009-06-24 17:59:00,
2009-06-24 11:09:00,76.7,58.3,29.81,NNE,13,1.0,3.0,53,0.00,,,0.00,Wunderground v.1.13,2009-06-24 18:09:00,
2009-06-24 11:19:00,77.0,58.6,29.81,NNE,16,3.0,3.0,53,0.00,,,0.00,Wunderground v.1.13,2009-06-24 18:19:00,
2009-06-24 11:29:00,77.0,58.6,29.81,NNE,23,2.0,2.0,53,0.00,,,0.00,Wunderground v.1.13,2009-06-24 18:29:00,
2009-06-24 11:39:00,77.0,58.6,29.82,North,357,1.0,3.0,53,0.00,,,0.00,Wunderground v.1.13,2009-06-24 18:39:00,
2009-06-24 11:49:00,77.6,58.0,29.81,North,6,2.0,3.0,51,0.00,,,0.00,Wunderground v.1.13,2009-06-24 18:49:00,
2009-06-24 11:59:00,77.6,58.6,29.81,NW,308,2.0,2.0,52,0.00,,,0.00,Wunderground v.1.13,2009-06-24 18:59:00,
2009-06-24 12:09:00,78.5,59.4,29.81,NE,41,1.0,1.0,52,0.00,,,0.00,Wunderground v.1.13,2009-06-24 19:09:00,
2009-06-24 12:20:00,78.5,59.4,29.82,NNW,335,1.0,3.0,52,0.00,,,0.00,Wunderground v.1.13,2009-06-24 19:20:00,
2009-06-24 12:29:00,78.3,57.6,29.82,North,3,2.0,3.0,49,0.00,,,0.00,Wunderground v.1.13,2009-06-24 19:29:00,
2009-06-24 12:40:00,78.3,57.6,29.82,North,0,1.0,3.0,49,0.00,,,0.00,Wunderground v.1.13,2009-06-24 19:40:00,
2009-06-24 12:49:00,79.8,58.9,29.81,North,0,2.0,2.0,49,0.00,,,0.00,Wunderground v.1.13,2009-06-24 19:49:00,
2009-06-24 12:59:00,80.3,59.4,29.81,NNW,346,1.0,3.0,49,0.00,,,0.00,Wunderground v.1.13,2009-06-24 19:59:00,
2009-06-24 13:09:00,80.3,59.4,29.82,NNW,339,1.0,3.0,49,0.00,,,0.00,Wunderground v.1.13,2009-06-24 20:09:00,
2009-06-24 13:19:00,79.9,59.0,29.82,NNE,13,3.0,3.0,49,0.00,,,0.00,Wunderground v.1.13,2009-06-24 20:19:00,
2009-06-24 13:29:00,79.8,58.9,29.82,ENE,72,1.0,3.0,49,0.00,,,0.00,Wunderground v.1.13,2009-06-24 20:29:00,
2009-06-24 13:40:00,79.9,56.7,29.81,NNW,332,2.0,3.0,45,0.00,,,0.00,Wunderground v.1.13,2009-06-24 20:40:00,
2009-06-24 13:49:00,80.3,57.0,29.81,North,10,2.0,2.0,45,0.00,,,0.00,Wunderground v.1.13,2009-06-24 20:49:00,
2009-06-24 13:59:00,79.9,56.7,29.81,NNW,342,1.0,3.0,45,0.00,,,0.00,Wunderground v.1.13,2009-06-24 20:59:00,
2009-06-24 14:09:00,80.5,56.6,29.81,NW,308,2.0,3.0,44,0.00,,,0.00,Wunderground v.1.13,2009-06-24 21:09:00,
2009-06-24 14:19:00,81.4,56.8,29.81,NNW,332,2.0,2.0,43,0.00,,,0.00,Wunderground v.1.13,2009-06-24 21:19:00,
2009-06-24 14:29:00,82.8,56.0,29.81,West,274,2.0,3.0,40,0.00,,,0.00,Wunderground v.1.13,2009-06-24 21:29:00,
2009-06-24 14:39:00,83.2,55.7,29.81,SSW,208,2.0,6.0,39,0.00,,,0.00,Wunderground v.1.13,2009-06-24 21:39:00,
2009-06-24 14:49:00,82.4,55.7,29.81,SSW,193,3.0,10.0,40,0.00,,,0.00,Wunderground v.1.13,2009-06-24 21:49:00,
2009-06-24 14:59:00,82.8,56.0,29.81,WNW,294,3.0,3.0,40,0.00,,,0.00,Wunderground v.1.13,2009-06-24 21:59:00,
2009-06-24 15:09:00,84.0,54.9,29.80,West,272,3.0,3.0,37,0.00,,,0.00,Wunderground v.1.13,2009-06-24 22:09:00,
2009-06-24 15:19:00,84.0,54.9,29.80,West,278,3.0,3.0,37,0.00,,,0.00,Wunderground v.1.13,2009-06-24 22:19:00,
2009-06-24 15:29:00,82.6,55.1,29.80,South,179,3.0,3.0,39,0.00,,,0.00,Wunderground v.1.13,2009-06-24 22:29:00,
2009-06-24 15:39:00,81.8,55.1,29.80,West,277,4.0,5.0,40,0.00,,,0.00,Wunderground v.1.13,2009-06-24 22:39:00,
2009-06-24 15:49:00,81.2,55.3,29.80,SW,222,3.0,12.0,41,0.00,,,0.00,Wunderground v.1.13,2009-06-24 22:49:00,
2009-06-24 15:59:00,80.9,55.0,29.80,SSW,209,5.0,5.0,41,0.00,,,0.00,Wunderground v.1.13,2009-06-24 22:59:00,
2009-06-24 16:09:00,78.3,54.0,29.80,WSW,240,2.0,3.0,43,0.00,,,0.00,Wunderground v.1.13,2009-06-24 23:09:00,
2009-06-24 16:19:00,77.9,53.6,29.80,WSW,240,3.0,3.0,43,0.00,,,0.00,Wunderground v.1.13,2009-06-24 23:19:00,
2009-06-24 16:29:00,77.7,53.4,29.80,SW,229,1.0,3.0,43,0.00,,,0.00,Wunderground v.1.13,2009-06-24 23:29:00,
2009-06-24 16:39:00,78.6,54.2,29.80,West,271,2.0,6.0,43,0.00,,,0.00,Wunderground v.1.13,2009-06-24 23:39:00,
2009-06-24 16:49:00,78.8,53.8,29.80,SSW,203,2.0,2.0,42,0.00,,,0.00,Wunderground v.1.13,2009-06-24 23:49:00,
2009-06-24 16:59:00,77.6,53.3,29.80,SW,217,1.0,1.0,43,0.00,,,0.00,Wunderground v.1.13,2009-06-24 23:59:00,
2009-06-24 17:09:00,77.6,53.3,29.80,WSW,244,1.0,3.0,43,0.00,,,0.00,Wunderground v.1.13,2009-06-25 00:09:00,
2009-06-24 17:19:00,77.2,53.0,29.80,South,171,1.0,3.0,43,0.00,,,0.00,Wunderground v.1.13,2009-06-25 00:19:00,
2009-06-24 17:29:00,76.8,52.6,29.80,SW,232,1.0,1.0,43,0.00,,,0.00,Wunderground v.1.13,2009-06-25 00:29:00,
2009-06-24 17:39:00,75.8,51.7,29.80,SSW,202,0.0,3.0,43,0.00,,,0.00,Wunderground v.1.13,2009-06-25 00:39:00,
2009-06-24 17:49:00,74.9,50.9,29.80,SE,143,1.0,1.0,43,0.00,,,0.00,Wunderground v.1.13,2009-06-25 00:49:00,
2009-06-24 17:59:00,74.4,53.4,29.80,South,184,3.0,3.0,48,0.00,,,0.00,Wunderground v.1.13,2009-06-25 00:59:00,
2009-06-24 18:09:00,72.8,52.0,29.80,SW,229,2.0,2.0,48,0.00,,,0.00,Wunderground v.1.13,2009-06-25 01:09:00,
2009-06-24 18:19:00,72.3,53.2,29.80,SSW,209,1.0,5.0,51,0.00,,,0.00,Wunderground v.1.13,2009-06-25 01:19:00,
2009-06-24 18:29:00,72.1,53.0,29.80,SSW,200,2.0,2.0,51,0.00,,,0.00,Wunderground v.1.13,2009-06-25 01:29:00,
2009-06-24 18:39:00,71.1,53.1,29.80,SSW,205,0.0,3.0,53,0.00,,,0.00,Wunderground v.1.13,2009-06-25 01:39:00,
2009-06-24 18:49:00,70.4,53.0,29.80,SSW,205,0.0,3.0,54,0.00,,,0.00,Wunderground v.1.13,2009-06-25 01:49:00,
2009-06-24 18:59:00,69.8,52.9,29.80,WSW,250,1.0,1.0,55,0.00,,,0.00,Wunderground v.1.13,2009-06-25 01:59:00,
2009-06-24 19:09:00,68.6,52.8,29.81,SW,220,0.0,3.0,57,0.00,,,0.00,Wunderground v.1.13,2009-06-25 02:09:00,
2009-06-24 19:19:00,67.6,52.8,29.81,SW,215,0.0,3.0,59,0.00,,,0.00,Wunderground v.1.13,2009-06-25 02:19:00,
2009-06-24 19:29:00,66.6,52.3,29.81,SW,217,0.0,3.0,60,0.00,,,0.00,Wunderground v.1.13,2009-06-25 02:29:00,
2009-06-24 19:39:00,65.6,52.2,29.82,SW,217,0.0,3.0,62,0.00,,,0.00,Wunderground v.1.13,2009-06-25 02:39:00,
2009-06-24 19:49:00,65.0,52.1,29.82,SW,216,0.0,3.0,63,0.00,,,0.00,Wunderground v.1.13,2009-06-25 02:49:00,
2009-06-24 19:59:00,64.3,52.3,29.82,SSW,205,0.0,3.0,65,0.00,,,0.00,Wunderground v.1.13,2009-06-25 02:59:00,
2009-06-24 20:09:00,63.4,52.2,29.83,SSW,209,0.0,3.0,67,0.00,,,0.00,Wunderground v.1.13,2009-06-25 03:09:00,
2009-06-24 20:19:00,62.3,52.0,29.83,SSW,208,0.0,3.0,69,0.00,,,0.00,Wunderground v.1.13,2009-06-25 03:19:00,
2009-06-24 20:29:00,61.2,51.7,29.83,SW,215,0.0,3.0,71,0.00,,,0.00,Wunderground v.1.13,2009-06-25 03:29:00,
2009-06-24 20:39:00,60.1,51.4,29.83,SSW,210,0.0,3.0,73,0.00,,,0.00,Wunderground v.1.13,2009-06-25 03:39:00,
2009-06-24 20:59:00,59.3,51.0,29.83,SSW,210,0.0,3.0,74,0.00,,,0.00,Wunderground v.1.13,2009-06-25 03:59:00,
2009-06-24 21:09:00,59.0,51.4,29.84,SSW,210,0.0,3.0,76,0.00,,,0.00,Wunderground v.1.13,2009-06-25 04:09:00,
2009-06-24 21:19:00,58.7,51.2,29.84,SSW,210,0.0,3.0,76,0.00,,,0.00,Wunderground v.1.13,2009-06-25 04:19:00,
2009-06-24 21:29:00,58.7,51.2,29.84,SSW,210,0.0,3.0,76,0.00,,,0.00,Wunderground v.1.13,2009-06-25 04:29:00,
2009-06-24 21:39:00,58.4,50.9,29.84,SSW,210,0.0,3.0,76,0.00,,,0.00,Wunderground v.1.13,2009-06-25 04:39:00,
2009-06-24 21:49:00,58.3,50.8,29.85,SSW,210,0.0,3.0,76,0.00,,,0.00,Wunderground v.1.13,2009-06-25 04:49:00,
2009-06-24 21:59:00,58.0,51.2,29.85,SSW,210,0.0,3.0,78,0.00,,,0.00,Wunderground v.1.13,2009-06-25 04:59:00,
2009-06-24 22:09:00,57.6,51.5,29.85,SSW,210,0.0,3.0,80,0.00,,,0.00,Wunderground v.1.13,2009-06-25 05:09:00,
2009-06-24 22:19:00,57.6,51.5,29.85,SSW,210,0.0,3.0,80,0.00,,,0.00,Wunderground v.1.13,2009-06-25 05:19:00,
2009-06-24 22:49:00,56.9,51.1,29.85,SSW,208,0.0,3.0,81,0.00,,,0.00,Wunderground v.1.13,2009-06-25 05:49:00,
2009-06-24 22:59:00,56.5,51.4,29.85,SSW,206,0.0,3.0,83,0.00,,,0.00,Wunderground v.1.13,2009-06-25 05:59:00,
2009-06-24 23:19:00,56.2,51.1,29.85,SSW,206,0.0,3.0,83,0.00,,,0.00,Wunderground v.1.13,2009-06-25 06:19:00,
2009-06-24 23:29:00,56.3,51.5,29.85,SSW,206,0.0,3.0,84,0.00,,,0.00,Wunderground v.1.13,2009-06-25 06:29:00,
2009-06-24 23:39:00,56.6,51.8,29.85,SSW,206,0.0,3.0,84,0.00,,,0.00,Wunderground v.1.13,2009-06-25 06:39:00,
2009-06-24 23:49:00,56.9,52.1,29.85,SSW,206,0.0,3.0,84,0.00,,,0.00,Wunderground v.1.13,2009-06-25 06:49:00,
2009-06-24 23:59:00,56.9,52.1,29.85,SSW,206,0.0,3.0,84,0.00,,,0.00,Wunderground v.1.13,2009-06-25 06:59:00,